Regional Weather Roundup
Issued by NWS

Home | Current Version | Previous Version | Text Only | Print | Product List | Glossary On
Versions: 1 2 3 4 5 6 7 8 9 10 11 12 13 14 15 16 17 18 19 20 21 22 23 24 25 26 27 28 29 30 31 32 33 34 35 36 37 38 39 40 41 42 43 44 45 46 47 48 49 50
000
ASUS43 KTOP 260808
RWRKS

WEATHER ROUNDUP FOR KANSAS
NATIONAL WEATHER SERVICE GOODLAND KS
300 AM CDT SUN OCT 26 2014

NOTE:  "FAIR" INDICATES FEW OR NO CLOUDS BELOW 12,000 FEET WITH NO
SIGNIFICANT WEATHER AND/OR OBSTRUCTIONS TO VISIBILITY.

KSZ001>006-013>018-027>032-041>047-260900-
NORTHWEST KANSAS

CITY           SKY/WX    TMP DP  RH WIND       PRES   REMARKS
GOODLAND       PTCLDY    44  38  79 W3        29.86F
HAYS           CLEAR     61  48  63 SE5       29.85F
HILL CITY      CLEAR     57  49  74 CALM      29.83F
RUSSELL        CLEAR     65  53  65 S15       29.84F
$$

KSZ061>065-074>080-084>089-260900-
SOUTHWEST KANSAS

CITY           SKY/WX    TMP DP  RH WIND       PRES   REMARKS
DODGE CITY     CLEAR     63  49  60 S10       29.88F
ELKHART          N/A     59  40  49 S12         N/A
GARDEN CITY    CLEAR     59  48  67 S5        29.86F
GREAT BEND     CLEAR     66  52  59 S13       29.88F
LIBERAL        CLEAR     61  46  59 S12       29.90F
PRATT          CLEAR     61  50  67 S7        29.92S
$$

KSZ066>073-081>083-090>101-260900-
SOUTHEAST KANSAS

CITY           SKY/WX    TMP DP  RH WIND       PRES   REMARKS
CHANUTE        CLEAR     62  60  93 SE7       29.96S
COFFEYVILLE    CLEAR     62  61  96 S5        29.96R
HUTCHINSON     CLEAR     63  54  72 SE5       29.90F
MEDICINE LODGE   N/A     65  53  65 S6        29.90F
NEWTON         CLEAR     63  54  72 S7        29.93F
PARSONS        CLEAR     65  62  90 S3        29.97S
WICHITA INTL   CLEAR     62  55  77 S7        29.92F
WICHITA JABRA  CLEAR     61  56  83 S7        29.92F
WICHITA MCCONL CLEAR     64  59  85 S9        29.93F
WINFIELD       CLEAR     64  57  78 S7        29.95F
$$

KSZ007>012-019>026-033>040-048>060-102>105-260900-
NORTHEAST KANSAS

CITY           SKY/WX    TMP DP  RH WIND       PRES   REMARKS
CONCORDIA      CLEAR     58  56  93 E5        29.87F
EMPORIA        CLEAR     62  60  93 S12       29.93F
LAWRENCE       CLEAR     60  55  83 E9        29.96S
MANHATTAN      CLEAR     57  56  96 CALM      29.90F
MARYSVILLE     CLEAR     61  50  67 SE14      29.90F
OLATHE IND     CLEAR     62  56  80 E8        29.97F
OLATHE EXE     CLEAR     63  56  78 E7        29.97F
SALINA         CLEAR     63  57  81 S12       29.88F
TOPEKA BILLARD CLEAR     62  58  86 E5        29.94F
TOPEKA FORBES  CLEAR     61  58  90 SE9       29.93F
$$



USA.gov is the U.S. government's official web portal to all federal, state and local government web resources and services.